sat.trackr.live / text

‹ back to catalog

STARLINK-11656 [DTC]

NORAD 63674 · 2025-085L

PAYLOAD ACTIVE UNKNOWN

§ Identity

Operator
Country
US
Launch date
2025-04-28
Launch site
AFETR
Launch vehicle
Mass (kg)
RCS (m²)

Purposes: comms

External: N2YO · Heavens-Above · Gunter

§ Orbital elements

Epoch: 2026-05-25T02:51:14.243040Z

Period
91.67 min
Inclination
42.9998°
Eccentricity
0.0001505
Mean motion
15.70929865 rev/d
Perigee alt
355.2 km
Apogee alt
357.3 km
Semi-major
6,734.4 km
B*
2.0005e-3
RAAN
177.5915°
Arg perigee
266.5095°
Mean anomaly
93.5600°
Rev number
6,226

§ Raw data

STARLINK-11656 [DTC]1 63674U 25085L   26145.11891485  .00265622  00000+0  20005-2 0  99922 63674  42.9998 177.5915 0001505 266.5095  93.5600 15.70929865 62269

JSON: /api/v1/satellites/63674 · /tle

For live sub-satellite position, see the globe view (requires WebGL).

§ Visibility from observer

Set your observer location to see the next 7 days of passes ≥ 10°. The values pass through the URL so the page stays shareable.

No JS? Fill the form by hand. The geolocation button needs JavaScript.